TimeCDT,TemperatureF,Dew PointF,Humidity,Sea Level PressureIn,VisibilityMPH,Wind Direction,Wind SpeedMPH,Gust SpeedMPH,PrecipitationIn,Events,Conditions,WindDirDegrees,DateUTC
12:14 AM,38.3,19.4,47,30.19,10.0,NNW,3.5,-,N/A,,Clear,330,2013-05-12 05:14:00
12:35 AM,37.4,19.2,48,30.20,10.0,Calm,Calm,-,N/A,,Clear,0,2013-05-12 05:35:00
12:54 AM,35.8,19.0,51,30.20,10.0,Calm,Calm,-,N/A,,Clear,0,2013-05-12 05:54:00
1:15 AM,35.1,19.4,53,30.20,10.0,WNW,4.6,-,N/A,,Clear,300,2013-05-12 06:15:00
1:35 AM,36.7,19.9,51,30.20,10.0,WNW,4.6,-,N/A,,Clear,290,2013-05-12 06:35:00
1:54 AM,35.6,19.8,53,30.20,10.0,WNW,4.6,-,N/A,,Clear,300,2013-05-12 06:54:00
2:15 AM,35.1,20.3,55,30.21,10.0,WNW,4.6,-,N/A,,Clear,300,2013-05-12 07:15:00
2:35 AM,35.4,19.9,53,30.21,10.0,WNW,3.5,-,N/A,,Clear,300,2013-05-12 07:35:00
2:54 AM,34.3,20.1,56,30.21,10.0,NW,4.6,-,N/A,,Clear,310,2013-05-12 07:54:00
3:15 AM,33.4,19.4,56,30.20,10.0,NW,4.6,-,N/A,,Clear,310,2013-05-12 08:15:00
3:34 AM,33.8,19.9,57,30.20,10.0,NW,3.5,-,N/A,,Clear,310,2013-05-12 08:34:00
3:55 AM,33.8,20.3,58,30.20,10.0,WNW,3.5,-,N/A,,Clear,300,2013-05-12 08:55:00
4:34 AM,32.9,21.0,62,30.20,10.0,WNW,4.6,-,N/A,,Clear,300,2013-05-12 09:34:00
4:55 AM,33.1,20.8,61,30.20,10.0,WNW,3.5,-,N/A,,Clear,300,2013-05-12 09:55:00
5:14 AM,32.7,21.2,63,30.20,10.0,WNW,3.5,-,N/A,,Clear,300,2013-05-12 10:14:00
5:35 AM,32.0,20.7,63,30.20,10.0,WNW,3.5,-,N/A,,Clear,290,2013-05-12 10:35:00
5:55 AM,31.1,20.1,64,30.21,10.0,Calm,Calm,-,N/A,,Clear,0,2013-05-12 10:55:00
6:14 AM,30.6,19.9,65,30.21,10.0,West,3.5,-,N/A,,Clear,280,2013-05-12 11:14:00
6:35 AM,30.9,20.5,65,30.21,10.0,WNW,3.5,-,N/A,,Clear,290,2013-05-12 11:35:00
6:55 AM,32.9,21.4,63,30.22,10.0,Calm,Calm,-,N/A,,Clear,0,2013-05-12 11:55:00
7:14 AM,36.0,22.8,59,30.22,10.0,WNW,6.9,-,N/A,,Clear,290,2013-05-12 12:14:00
7:35 AM,37.8,23.0,55,30.23,10.0,WNW,6.9,-,N/A,,Clear,300,2013-05-12 12:35:00
7:55 AM,39.9,23.2,51,30.22,10.0,WNW,4.6,-,N/A,,Clear,300,2013-05-12 12:55:00
8:14 AM,41.9,21.2,44,30.23,10.0,NW,6.9,-,N/A,,Clear,320,2013-05-12 13:14:00
8:35 AM,43.2,21.4,42,30.24,10.0,NW,6.9,-,N/A,,Clear,320,2013-05-12 13:35:00
8:54 AM,43.9,20.8,40,30.24,10.0,NNW,9.2,-,N/A,,Clear,330,2013-05-12 13:54:00
9:14 AM,45.3,19.9,36,30.23,10.0,NW,8.1,-,N/A,,Clear,310,2013-05-12 14:14:00
9:35 AM,46.2,18.5,33,30.22,10.0,West,10.4,17.3,N/A,,Clear,280,2013-05-12 14:35:00
9:54 AM,46.8,17.8,32,30.22,10.0,NNW,8.1,12.7,N/A,,Clear,340,2013-05-12 14:54:00
10:15 AM,47.8,15.1,27,30.22,10.0,NNW,10.4,19.6,N/A,,Clear,330,2013-05-12 15:15:00
10:35 AM,48.7,14.0,25,30.22,10.0,NW,11.5,18.4,N/A,,Clear,320,2013-05-12 15:35:00
10:54 AM,48.9,14.7,26,30.22,10.0,NNW,11.5,17.3,N/A,,Clear,330,2013-05-12 15:54:00
11:15 AM,49.5,14.9,25,30.21,10.0,NW,6.9,18.4,N/A,,Clear,310,2013-05-12 16:15:00
11:34 AM,50.9,14.9,24,30.21,10.0,NNW,11.5,-,N/A,,Clear,330,2013-05-12 16:34:00
11:55 AM,50.7,12.4,22,30.20,10.0,NW,8.1,17.3,N/A,,Clear,310,2013-05-12 16:55:00
12:15 PM,52.0,13.8,22,30.19,10.0,NNW,11.5,17.3,N/A,,Clear,330,2013-05-12 17:15:00
12:34 PM,52.3,12.9,21,30.19,10.0,West,4.6,19.6,N/A,,Clear,280,2013-05-12 17:34:00
12:55 PM,53.6,11.5,19,30.18,10.0,WNW,12.7,19.6,N/A,,Clear,290,2013-05-12 17:55:00
1:14 PM,54.0,11.3,18,30.18,10.0,NW,16.1,24.2,N/A,,Clear,320,2013-05-12 18:14:00
1:34 PM,54.9,9.0,16,30.17,10.0,NW,11.5,17.3,N/A,,Clear,310,2013-05-12 18:34:00
1:55 PM,55.2,8.4,15,30.16,10.0,NW,16.1,19.6,N/A,,Clear,320,2013-05-12 18:55:00
2:14 PM,55.4,6.6,14,30.16,10.0,NW,13.8,21.9,N/A,,Clear,320,2013-05-12 19:14:00
2:35 PM,56.5,6.6,14,30.15,10.0,NW,15.0,18.4,N/A,,Clear,310,2013-05-12 19:35:00
2:55 PM,56.5,6.6,14,30.14,10.0,NNW,13.8,19.6,N/A,,Clear,340,2013-05-12 19:55:00
3:14 PM,57.2,8.4,14,30.14,10.0,NNW,12.7,20.7,N/A,,Clear,340,2013-05-12 20:14:00
3:35 PM,57.7,6.8,13,30.14,10.0,NNW,11.5,-,N/A,,Clear,330,2013-05-12 20:35:00
3:54 PM,58.1,6.1,13,30.13,10.0,NNW,13.8,18.4,N/A,,Clear,340,2013-05-12 20:54:00
4:15 PM,58.5,7.5,13,30.12,10.0,NW,12.7,19.6,N/A,,Clear,320,2013-05-12 21:15:00
4:34 PM,59.0,8.2,13,30.12,10.0,NNW,13.8,20.7,N/A,,Clear,330,2013-05-12 21:34:00
4:55 PM,59.4,10.2,14,30.12,10.0,NW,15.0,18.4,N/A,,Clear,320,2013-05-12 21:55:00
5:15 PM,59.4,9.7,14,30.11,10.0,WNW,9.2,17.3,N/A,,Clear,300,2013-05-12 22:15:00
5:34 PM,59.5,10.4,14,30.11,10.0,WNW,12.7,17.3,N/A,,Clear,300,2013-05-12 22:34:00
5:55 PM,59.4,10.6,15,30.10,10.0,NW,10.4,17.3,N/A,,Clear,320,2013-05-12 22:55:00
6:15 PM,59.0,10.2,15,30.10,10.0,NNW,15.0,19.6,N/A,,Clear,330,2013-05-12 23:15:00
6:34 PM,58.8,9.5,14,30.09,10.0,NW,13.8,17.3,N/A,,Clear,320,2013-05-12 23:34:00
6:55 PM,58.5,10.8,15,30.09,10.0,NW,11.5,-,N/A,,Clear,310,2013-05-12 23:55:00
7:15 PM,58.3,10.0,15,30.09,10.0,NW,9.2,-,N/A,,Clear,320,2013-05-13 00:15:00
7:34 PM,57.4,11.3,16,30.09,10.0,NNW,9.2,-,N/A,,Clear,340,2013-05-13 00:34:00
7:55 PM,56.7,11.7,17,30.09,10.0,NNW,8.1,-,N/A,,Clear,330,2013-05-13 00:55:00
8:15 PM,55.8,11.1,17,30.09,10.0,NNW,5.8,-,N/A,,Clear,330,2013-05-13 01:15:00
8:34 PM,53.8,12.4,19,30.10,10.0,NNW,3.5,-,N/A,,Clear,330,2013-05-13 01:34:00
8:55 PM,52.0,13.6,22,30.10,10.0,NNW,3.5,-,N/A,,Clear,340,2013-05-13 01:55:00
9:14 PM,51.3,13.3,22,30.10,10.0,Calm,Calm,-,N/A,,Clear,0,2013-05-13 02:14:00
9:35 PM,50.5,13.6,23,30.10,10.0,Calm,Calm,-,N/A,,Clear,0,2013-05-13 02:35:00
9:55 PM,48.6,14.4,25,30.11,10.0,Calm,Calm,-,N/A,,Clear,0,2013-05-13 02:55:00
10:14 PM,46.6,14.7,28,30.11,10.0,Calm,Calm,-,N/A,,Clear,0,2013-05-13 03:14:00
10:35 PM,46.6,16.7,30,30.10,10.0,Calm,Calm,-,N/A,,Clear,0,2013-05-13 03:35:00
10:54 PM,45.7,19.0,35,30.10,10.0,Calm,Calm,-,N/A,,Clear,0,2013-05-13 03:54:00
11:15 PM,45.1,18.9,35,30.10,10.0,Calm,Calm,-,N/A,,Clear,0,2013-05-13 04:15:00
11:35 PM,42.8,19.9,40,30.10,10.0,Calm,Calm,-,N/A,,Clear,0,2013-05-13 04:35:00
11:54 PM,42.3,19.8,41,30.10,10.0,Calm,Calm,-,N/A,,Clear,0,2013-05-13 04:54:00